[[{"header":{"parameterUnit":"m.s-1","parameterCategory":1,"la1":30.2991,"la2":30.254,"lo1":-89.0895,"lo2":-89.0444,"dx":0.0017,"dy":0.0017,"nx":28,"ny":28,"refTime":"2023-01-30T15:00:00:Z","depth":0,"parameterNumber":2,"parameterNumberName":"U-component_of_WINDS"},"data":[0,0,0,0,0,0,0,0,0,0,0,0,0,0,0,0,0,0,0,0,0,0,0,0,0,0,0,0,0,0,0,0,0,0,0,0,0,0,0,0,0,0,0,0,0,0,0,0,0,0,0,0,0,0,0,0,0,0,0.7257,0.7258,0,0.7314,0.7314,0.7315,0.7254,0.7251,0.7249,0.7247,0.731,0.7314,0.7318,0,0,0,0,0,0,0,0,0,0,0,0,0,0.7101,0.7104,0.7257,0.7258,0.7259,0.7314,0.7314,0.7315,0.7254,0.7251,0.7248,0.7246,0.7309,0.7314,0.7318,0,0,0,0,0,0,0,0,0,0,0,0,0,0.7165,0.7105,0.7257,0.7235,0.7233,0.7314,0.7315,0.7315,0.7255,0.7251,0.7247,0.7244,0.7308,0.7313,0.7319,0.7426,0,0,0.7337,0.7339,0,0,0,0,0,0,0,0,0.7161,0.717,0.7237,0.7236,0.7235,0.7273,0.7283,0.7353,0.7256,0.7247,0.7247,0.7242,0.7301,0.7307,0.7326,0.7429,0.7432,0.7337,0.7341,0.7343,0.7345,0,0,0,0,0,0,0,0.7157,0.7168,0.728,0.7238,0.7237,0.7223,0.7228,0.7296,0.7293,0.7247,0.7243,0.725,0.73,0.732,0.7327,0.7433,0.7337,0.7342,0.7346,0.7348,0.7628,0.7631,0,0,0,0,0,0,0.7154,0.7164,0.7278,0.7281,0.7188,0.7229,0.7235,0.7264,0.7292,0.7293,0.7253,0.7247,0.7312,0.732,0.7329,0.7457,0.7343,0.7349,0.7352,0.7624,0.7628,0.7633,0,0,0,0,0,0,0.7151,0.7165,0.7276,0.7222,0.7235,0.7235,0.7269,0.7267,0.7288,0.7297,0.7296,0.7274,0.731,0.7321,0.7402,0.7458,0.7352,0.7357,0.7619,0.7625,0.763,0.7714,0,0,0,0,0,0,0.7147,0.7164,0.7204,0.7223,0.7238,0.7347,0.7273,0.7271,0.7297,0.729,0.7317,0.7318,0.7308,0.7394,0.7408,0.7465,0.7361,0.7614,0.7622,0.7629,0.7706,0.7722,0.7735,0,0,0,0,0,0.7141,0.7226,0.7206,0.722,0.7287,0.735,0.7359,0.7344,0.7302,0.7343,0.7348,0.7317,0.7449,0.7403,0.7418,0.7477,0.7611,0.762,0.7628,0.77,0.7719,0.7735,0,0,0,0,0,0,0.7216,0.7228,0.7206,0.7299,0.7324,0.734,0.7391,0.7365,0.7403,0.7395,0.7377,0.7383,0.747,0.7481,0.7429,0.7583,0.7523,0.7536,0.7573,0.7591,0.7605,0.7602,0.7366,0,0,0,0,0,0.7243,0.7291,0.73,0.7382,0.7395,0.7391,0.7418,0.7404,0.7429,0.744,0.7452,0.7479,0.7527,0.7559,0.7603,0.7707,0.7713,0.7755,0.777,0.7781,0.7793,0.785,0.7869,0.7661,0.7661,0.7661,0,0,0.73,0.7312,0.7345,0.7397,0.7414,0.7467,0.74,0.7458,0.7497,0.7449,0.7527,0.7536,0.7566,0.7659,0.77,0.7671,0.7851,0.7793,0.7802,0.7808,0.7861,0.788,0.7898,0.7667,0.7666,0.7665,0,0,0.743,0.7444,0.7514,0.7532,0.7558,0.7555,0.7572,0.7591,0.7595,0.7672,0.7637,0.7684,0.7766,0.7789,0.7811,0.7949,0.7922,0.7964,0.8041,0.8097,0.8113,0.8127,0.8178,0.8197,0.7975,0.7975,0.7975,0,0.7499,0.7574,0.7553,0.7614,0.7638,0.7595,0.7666,0.7685,0.7726,0.7745,0.771,0.7813,0.783,0.7928,0.7961,0.798,0.8,0.7962,0.8112,0.8126,0.8139,0.8188,0.8207,0.798,0.798,0.7979,0.7979,0,0.7657,0.771,0.7764,0.7802,0.7832,0.7898,0.7889,0.7922,0.7905,0.7906,0.7985,0.8003,0.8051,0.8072,0.8058,0.8169,0.815,0.8114,0.8055,0.8165,0.821,0.8228,0.7988,0.7986,0.7984,0.7983,0,0,0.7839,0.7863,0.7883,0.79,0.7925,0.7967,0.8031,0.8075,0.8105,0.8134,0.8189,0.8259,0.8225,0.8251,0.8238,0.8286,0.8396,0.8244,0.8244,0.8273,0.8521,0.855,0.8572,0.8376,0.838,0.8383,0.852,0,0.7971,0.808,0.8063,0.817,0.8219,0.8178,0.8234,0.8256,0.8258,0.8302,0.8304,0.8355,0.8306,0.8321,0.8367,0.8373,0.8446,0.8362,0.843,0.8432,0.8426,0.8595,0.8625,0.8754,0.8537,0.854,0.8542,0,0.8141,0.8174,0.8285,0.8302,0.8323,0.8373,0.8413,0.8454,0.8479,0.8477,0.8505,0.8482,0.8548,0.8485,0.8576,0.852,0.8546,0.8553,0.8557,0.8565,0.8496,0.861,0.8794,0.8815,0.8569,0.8567,0.8565,0,0.8264,0.8337,0.8413,0.8428,0.845,0.8487,0.8498,0.8519,0.8547,0.8581,0.86,0.8642,0.8666,0.8701,0.8691,0.8646,0.8785,0.8721,0.8787,0.8788,0.8821,0.8819,0.9015,0.8834,0.8834,0.8833,0.8833,0,0.8415,0.8485,0.8468,0.8515,0.8593,0.8572,0.865,0.8657,0.8676,0.8724,0.8691,0.8738,0.8721,0.8767,0.876,0.8838,0.8849,0.885,0.8848,0.8855,0.8855,0.8874,0.8865,0.8838,0.8837,0.8836,0.8835,0,0.8567,0.8558,0.8639,0.8652,0.8657,0.8714,0.8726,0.8771,0.8769,0.8831,0.8845,0.8843,0.8896,0.8889,0.8948,0.8943,0.904,0.9026,0.9032,0.9029,0.9097,0.9091,0.9313,0.9342,0.914,0.9142,0.9144,0,0.8665,0.8718,0.8736,0.8765,0.8779,0.8826,0.8854,0.8836,0.8867,0.8898,0.894,0.8989,0.9028,0.9114,0.912,0.9165,0.9153,0.9227,0.916,0.9165,0.9157,0.9155,0.9161,0.9242,0.9244,0.9246,0.9247,0,0.884,0.8833,0.8873,0.8913,0.8946,0.8977,0.9004,0.903,0.9015,0.9051,0.9104,0.9133,0.9193,0.9243,0.9285,0.9298,0.9272,0.9268,0.9286,0.9295,0.9297,0.9298,0.9071,0.9264,0.9262,0.9261,0.926,0.9259,0.897,0.9015,0.9035,0.9081,0.9099,0.9125,0.9168,0.9171,0.9214,0.926,0.9247,0.9307,0.9331,0.9384,0.9402,0.9449,0.9422,0.9448,0.9455,0.9463,0.9471,0.9287,0.9457,0.9456,0.9456,0.9455,0.9455,0,0.9145,0.9155,0.9198,0.9236,0.9273,0.9241,0.927,0.9304,0.9356,0.938,0.9418,0.9478,0.9526,0.9535,0.9581,0.9618,0.9607,0.9631,0.9629,0.9633,0.9492,0.9472,0.9639,0.9639,0.9639,0.9639,0.9639,0.9639,0.9241,0.9316,0.9311,0.9395,0.9405,0.9462,0.9481,0.9506,0.9525,0.9593,0.9632,0.9637,0.9655,0.9702,0.9745,0.9746,0.9766,0.9795,0.9792,0.9661,0.9643,0.9625,0.9607,0.9799,0.9799,0.9929,0.993,0.9931]},{"header":{"parameterUnit":"m.s-1","parameterCategory":1,"la1":30.2991,"la2":30.254,"lo1":-89.0895,"lo2":-89.0444,"dx":0.0017,"dy":0.0017,"nx":28,"ny":28,"refTime":"2023-01-30T15:00:00:Z","depth":0,"parameterNumber":3,"parameterNumberName":"V-component_of_WINDS"},"data":[0,0,0,0,0,0,0,0,0,0,0,0,0,0,0,0,0,0,0,0,0,0,0,0,0,0,0,0,0,0,0,0,0,0,0,0,0,0,0,0,0,0,0,0,0,0,0,0,0,0,0,0,0,0,0,0,0,0,2.2599,2.2599,0,2.2654,2.2655,2.2655,2.2643,2.2642,2.2641,2.264,2.2694,2.2697,2.2699,0,0,0,0,0,0,0,0,0,0,0,0,0,2.248,2.2482,2.2599,2.2599,2.26,2.2654,2.2655,2.2655,2.2643,2.2642,2.264,2.2639,2.2694,2.2697,2.2699,0,0,0,0,0,0,0,0,0,0,0,0,0,2.2533,2.2483,2.2599,2.26,2.2601,2.2654,2.2655,2.2656,2.2643,2.2642,2.264,2.2639,2.2693,2.2696,2.27,2.2753,0,0,2.2711,2.2713,0,0,0,0,0,0,0,0,2.253,2.2537,2.2599,2.26,2.2601,2.264,2.2633,2.2688,2.2644,2.2627,2.264,2.2638,2.2677,2.2682,2.2696,2.2756,2.2758,2.2711,2.2714,2.2715,2.2716,0,0,0,0,0,0,0,2.2526,2.2535,2.2621,2.26,2.2602,2.2598,2.2603,2.2643,2.266,2.2628,2.2628,2.2635,2.2678,2.2693,2.2697,2.2759,2.2711,2.2714,2.2717,2.2718,2.2865,2.2867,0,0,0,0,0,0,2.2522,2.2532,2.2619,2.2622,2.2561,2.2601,2.2608,2.2629,2.266,2.2663,2.2636,2.2634,2.2687,2.2693,2.2699,2.2764,2.2715,2.2718,2.2721,2.2864,2.2866,2.2867,0,0,0,0,0,0,2.252,2.253,2.2617,2.2577,2.2588,2.2605,2.2629,2.2631,2.2646,2.2665,2.2668,2.2648,2.2686,2.2694,2.274,2.2766,2.272,2.2723,2.2861,2.2864,2.2867,2.2894,0,0,0,0,0,0,2.2516,2.2529,2.2551,2.2578,2.259,2.2658,2.2631,2.2633,2.2652,2.265,2.2678,2.2681,2.2685,2.2735,2.2744,2.277,2.2726,2.2859,2.2863,2.2866,2.2891,2.2897,2.2903,0,0,0,0,0,2.2512,2.2556,2.2552,2.2562,2.2617,2.2659,2.2666,2.2671,2.2655,2.2676,2.2688,2.268,2.2761,2.274,2.275,2.2777,2.2858,2.2862,2.2865,2.2888,2.2896,2.2902,0,0,0,0,0,0,2.2531,2.2559,2.2555,2.2609,2.2632,2.2657,2.2684,2.2679,2.2707,2.2703,2.2708,2.2714,2.2761,2.2773,2.2749,2.283,2.2807,2.2813,2.2821,2.2828,2.2834,2.283,2.2729,0,0,0,0,0,2.2542,2.2574,2.2597,2.2642,2.2654,2.2667,2.2685,2.2687,2.2711,2.272,2.2736,2.2758,2.2789,2.2809,2.2838,2.2892,2.2898,2.2916,2.2922,2.2926,2.2932,2.2961,2.2969,2.288,2.288,2.288,0,0,2.2564,2.2583,2.2603,2.2646,2.2664,2.2697,2.2675,2.2711,2.2735,2.2725,2.277,2.2782,2.2808,2.2858,2.2881,2.287,2.2957,2.2931,2.2935,2.2938,2.2966,2.2974,2.2981,2.2883,2.2882,2.2882,0,0,2.2621,2.2639,2.2678,2.2697,2.2724,2.2732,2.2742,2.2767,2.2775,2.282,2.2813,2.2842,2.2894,2.2913,2.2929,2.2991,2.2985,2.3,2.3031,2.306,2.3067,2.3073,2.3095,2.3103,2.3006,2.3006,2.3006,0,2.2645,2.2695,2.2699,2.2736,2.2755,2.2747,2.2787,2.2804,2.2839,2.2852,2.2839,2.2905,2.2921,2.2975,2.2991,2.3004,2.3014,2.2998,2.3065,2.3072,2.3077,2.3099,2.3107,2.3007,2.3007,2.3007,2.3007,0,2.2723,2.2757,2.2786,2.2821,2.2843,2.2881,2.289,2.2911,2.2911,2.292,2.2965,2.2985,2.3017,2.303,2.303,2.3084,2.3076,2.3064,2.3041,2.3088,2.3108,2.3116,2.301,2.3009,2.3009,2.3008,0,0,2.2795,2.2831,2.2841,2.2857,2.2886,2.2912,2.2949,2.2982,2.3,2.3024,2.3055,2.3099,2.3088,2.3106,2.3107,2.3132,2.318,2.3117,2.3117,2.3128,2.3241,2.3251,2.326,2.3176,2.3177,2.3178,2.3239,0,2.2855,2.2922,2.2926,2.2985,2.3017,2.301,2.3042,2.3063,2.3072,2.3099,2.3109,2.3141,2.3123,2.3134,2.3158,2.317,2.3203,2.3165,2.3204,2.3206,2.3199,2.3271,2.3281,2.3338,2.3247,2.3248,2.3249,0,2.2935,2.2962,2.3025,2.3049,2.3062,2.3091,2.3121,2.3147,2.317,2.3175,2.3195,2.3193,2.323,2.3204,2.3255,2.3229,2.3245,2.3252,2.3255,2.3259,2.3231,2.3278,2.3356,2.3365,2.3262,2.3261,2.326,0,2.2982,2.3033,2.3078,2.3091,2.312,2.314,2.3153,2.3175,2.3194,2.3219,2.3231,2.326,2.3276,2.3299,2.3304,2.3285,2.3354,2.3329,2.3359,2.3359,2.3375,2.3374,2.3458,2.3384,2.3384,2.3384,2.3384,0,2.3049,2.3088,2.3099,2.3127,2.317,2.3173,2.3216,2.3227,2.3246,2.3274,2.3269,2.3296,2.3301,2.3328,2.3332,2.3374,2.3381,2.3385,2.3386,2.3386,2.3386,2.3398,2.3394,2.3386,2.3385,2.3385,2.3385,0,2.311,2.3119,2.3167,2.319,2.3196,2.3227,2.3246,2.3272,2.328,2.3317,2.3325,2.3338,2.337,2.3377,2.3415,2.3417,2.3466,2.3463,2.3459,2.3459,2.3489,2.3486,2.3583,2.3596,2.3513,2.3514,2.3515,0,2.3153,2.3183,2.3209,2.3228,2.3242,2.3273,2.3292,2.3296,2.3316,2.3344,2.3366,2.3398,2.3424,2.3475,2.3487,2.3516,2.3513,2.3545,2.3517,2.3517,2.3514,2.3513,2.3516,2.3551,2.3552,2.3552,2.3553,0,2.3229,2.3231,2.326,2.329,2.3313,2.3337,2.3359,2.3375,2.3381,2.3404,2.3437,2.3457,2.3496,2.3527,2.3556,2.3568,2.3562,2.3561,2.357,2.3571,2.3568,2.3571,2.3474,2.3559,2.3559,2.3558,2.3558,2.3558,2.3283,2.3309,2.3331,2.3363,2.338,2.34,2.3426,2.3437,2.3465,2.3497,2.3497,2.3533,2.3554,2.3591,2.3605,2.3633,2.3623,2.3635,2.3638,2.3641,2.3644,2.3563,2.3638,2.3637,2.3637,2.3637,2.3637,0,2.3359,2.3372,2.3401,2.3433,2.3457,2.3449,2.3473,2.3494,2.3526,2.3546,2.3571,2.3609,2.3639,2.3652,2.3682,2.3701,2.3699,2.3709,2.3708,2.3711,2.3651,2.3641,2.371,2.371,2.371,2.371,2.371,2.371,2.3401,2.3445,2.345,2.3502,2.3515,2.3551,2.3565,2.3584,2.3599,2.3642,2.3667,2.3676,2.3693,2.3723,2.375,2.3753,2.3764,2.3775,2.3777,2.3722,2.3715,2.3708,2.3698,2.3778,2.3778,2.3834,2.3835,2.3835]}]]